KM4KMO-14 Weather Reports


time (UTC)temp
C
wind
direction
speed
KPH
gust
KPH
rain 1hr
cm
rain 24hr
cm
rain mn
cm
humidity
%
barometer
mb
20260506034214 21 225 0.0 1.6 0.00 0.00 0.00 64 1008.4
20260506032714 21 242 0.0 1.6 0.00 0.00 0.00 63 1008.8
20260506031214 21 239 0.0 3.2 0.00 0.00 0.00 62 1008.7
20260506025714 21 229 0.0 1.6 0.00 0.00 0.00 62 1008.6
20260506024214 21 238 0.0 3.2 0.00 0.00 0.00 62 1009.1
20260506022714 21 197 1.6 6.4 0.00 0.00 0.00 61 1008.6
20260506015714 21 214 1.6 3.2 0.00 0.00 0.00 62 1008.2
20260506014214 21 223 0.0 3.2 0.00 0.00 0.00 62 1008.1
20260506012715 21 254 0.0 1.6 0.00 0.00 0.00 61 1008.0
20260506011215 21 246 0.0 0.0 0.00 0.00 0.00 60 1007.9
20260506005715 21 246 0.0 0.0 0.00 0.00 0.00 60 1007.7
20260506004215 21 249 0.0 0.0 0.00 0.00 0.00 60 1007.7
20260506001215 21 249 0.0 0.0 0.00 0.00 0.00 61 1008.0
20260505235715 20 249 0.0 0.0 0.00 0.00 0.00 61 1008.1
20260505232715 21 248 0.0 9.7 0.00 0.00 0.00 65 1008.1
20260505231215 21 243 0.0 1.6 0.00 0.00 0.00 63 1008.1
20260505225715 21 234 0.0 1.6 0.00 0.00 0.00 60 1008.0
20260505224215 21 242 0.0 1.6 0.00 0.00 0.00 59 1008.0
20260505221215 21 244 0.0 1.6 0.00 0.00 0.00 60 1008.0
20260505214215 21 252 0.0 1.6 0.00 0.00 0.00 59 1007.9
20260505205715 23 189 1.6 3.2 0.00 0.00 0.00 47 1008.5
20260505204215 24 202 3.2 8.0 0.00 0.00 0.00 44 1008.6
20260505202715 25 254 1.6 6.4 0.00 0.00 0.00 51 1008.7
20260505201215 26 226 3.2 6.4 0.00 0.00 0.00 49 1009.0
20260505195715 27 206 3.2 9.7 0.00 0.00 0.00 48 1009.2
20260505194215 26 240 4.8 11.3 0.00 0.00 0.00 47 1009.1
20260505192716 26 144 1.6 6.4 0.00 0.00 0.00 44 1009.4
20260505191219 26 228 3.2 11.3 0.00 0.00 0.00 45 1009.6
20260505185716 26 168 3.2 6.4 0.00 0.00 0.00 43 1009.6
20260505184216 26 243 3.2 9.7 0.00 0.00 0.00 45 1009.8
20260505182716 26 222 3.2 6.4 0.00 0.00 0.00 46 1009.9
20260505181218 26 246 1.6 9.7 0.00 0.00 0.00 50 1010.4
20260505175716 25 135 3.2 6.4 0.00 0.00 0.00 49 1010.3
20260505174216 25 219 1.6 8.0 0.00 0.00 0.00 51 1010.4
20260505172716 25 113 1.6 4.8 0.00 0.00 0.00 53 1010.8
20260505171216 24 188 3.2 9.7 0.00 0.00 0.00 54 1011.2
20260505165716 25 220 1.6 8.0 0.00 0.00 0.00 54 1011.5
20260505164219 23 218 3.2 8.0 0.00 0.00 0.00 55 1011.6
20260505162717 23 213 1.6 6.4 0.00 0.00 0.00 56 1011.6
20260505161216 23 231 0.0 1.6 0.00 0.00 0.00 60 1011.4
20260505152716 21 198 1.6 3.2 0.00 0.00 0.00 64 1011.9
20260505151217 21 267 1.6 6.4 0.00 0.00 0.00 66 1012.1
20260505124217 14 200 0.0 0.0 0.00 0.00 0.00 81 1011.7
20260505121217 13 200 0.0 0.0 0.00 0.00 0.00 82 1011.3
20260505114217 12 200 0.0 0.0 0.00 0.00 0.00 84 1011.1
20260505112717 12 200 0.0 0.0 0.00 0.00 0.00 84 1010.9
20260505111217 11 200 0.0 0.0 0.00 0.00 0.00 84 1010.8
20260505101217 11 200 0.0 0.0 0.00 0.00 0.00 85 1010.3
20260505095717 12 200 0.0 0.0 0.00 0.00 0.00 83 1010.0
20260505094217 12 200 0.0 0.0 0.00 0.00 0.00 82 1009.9
20260505092717 12 200 0.0 0.0 0.00 0.00 0.00 82 1010.1
20260505091217 12 200 0.0 0.0 0.00 0.00 0.00 81 1010.1
20260505084217 13 200 0.0 0.0 0.00 0.00 0.00 79 1010.0
20260505082717 13 200 0.0 1.6 0.00 0.00 0.00 79 1010.2
20260505081217 13 227 0.0 0.0 0.00 0.00 0.00 79 1010.3
20260505072717 13 227 0.0 0.0 0.00 0.00 0.00 80 1010.3
20260505071217 13 227 0.0 0.0 0.00 0.00 0.00 80 1010.4
20260505065717 13 227 0.0 0.0 0.00 0.00 0.00 80 1010.3
20260505064218 13 227 0.0 0.0 0.00 0.00 0.00 79 1010.4
20260505062718 13 227 0.0 0.0 0.00 0.00 0.00 78 1010.5
20260505055718 14 227 0.0 0.0 0.00 0.00 0.00 75 1010.5
20260505041217 16 146 0.0 0.0 0.00 0.00 0.00 69 1010.5
20260505035717 16 146 0.0 0.0 0.00 0.00 0.00 69 1010.5